Temperature
31 31 31 33 33 33 34 34 33 34 35 34 33 33 33 33 32 32 31 30 28 27 26 25 24 24 22 22 21 21 21 21 20 20 20 20 20 19 19 19 19 19 19 19
31 31 33 34 34 33 33 33 33 33 34 34 33 33 34 33 33 32 31 30 29 28 27 25 24 24 23 22 21 21 21 21 21 20 20 20 19 19 19 19 19 19 19 19
31 32 34 33 33 33 33 33 33 33 33 33 33 32 33 33 33 32 32 31 30 28 27 26 25 24 23 22 22 21 21 21 21 20 20 20 19 19 19 19 19 19 19 19
31 33 33 33 33 33 32 34 33 33 32 32 33 31 32 32 32 32 32 32 31 30 28 26 25 24 23 22 22 22 22 21 21 20 20 20 19 19 19 19 19 19 19 19
31 32 32 32 33 33 33 34 33 33 32 32 32 32 32 32 31 32 32 32 31 30 29 27 26 25 24 23 22 22 21 21 21 20 20 20 19 19 19 19 19 19 19 19
32 33 33 33 33 34 34 33 33 33 32 30 31 31 31 32 31 31 32 31 30 30 28 27 26 25 24 23 22 21 21 21 21 20 20 20 20 19 19 19 19 19 19 19
31 32 33 33 33 33 33 31 30 30 30 30 32 32 31 32 32 32 32 31 30 29 28 27 26 25 24 23 22 22 21 21 21 20 20 20 20 19 19 19 19 18 18 18
29 30 32 33 32 32 32 31 30 29 30 31 31 31 32 33 33 32 32 31 30 29 28 27 26 25 24 23 22 22 21 21 20 20 20 20 20 19 19 19 19 18 18 18
31 30 33 33 33 33 32 32 33 32 31 30 31 31 32 33 32 32 32 31 30 29 28 27 26 25 24 23 22 22 21 20 20 20 20 19 19 19 19 19 19 18 18 18
32 31 32 33 33 33 33 33 32 31 29 29 30 30 30 31 32 32 32 31 30 29 28 27 26 25 24 23 22 21 21 20 20 20 19 19 19 19 19 18 18 18 18 18
32 30 31 32 31 31 31 32 31 31 31 30 29 30 32 31 31 32 32 31 30 29 28 27 26 24 23 23 22 21 21 20 20 20 19 19 19 19 18 18 18 18 18 18
31 31 30 31 33 33 32 32 31 30 30 30 30 30 33 32 32 32 31 30 29 28 27 26 25 24 23 22 22 21 20 20 20 19 19 19 19 18 18 18 18 18 18 18
31 30 29 29 31 32 31 32 32 32 31 30 30 30 32 31 31 31 31 30 28 27 26 25 24 23 22 22 21 21 20 20 19 19 19 19 18 18 18 18 18 18 17 17
30 29 29 29 30 31 30 31 32 31 30 30 30 30 31 31 31 31 30 29 28 27 26 25 24 23 22 21 21 20 20 19 19 19 19 18 18 18 18 18 18 17 17 17
30 29 29 30 31 31 31 31 31 31 31 30 31 31 31 31 31 30 29 29 28 26 25 24 23 22 21 21 20 20 19 19 19 18 18 18 18 18 17 17 17 17 17 17
29 28 29 29 30 31 31 31 31 31 31 31 31 31 32 32 31 30 29 28 27 26 25 24 22 21 21 20 20 20 19 19 18 18 18 18 17 17 17 17 17 17 16 16
28 27 27 28 29 30 29 31 31 31 31 31 31 31 31 31 30 29 28 27 27 26 24 23 22 21 20 20 20 19 19 18 18 18 17 17 17 17 17 16 16 16 16 16
27 26 26 27 28 27 30 32 32 31 32 32 31 31 31 30 29 28 27 26 26 25 24 23 22 21 20 20 19 19 19 18 18 17 17 17 17 16 16 16 16 16 15 15
27 26 26 27 27 28 30 31 31 31 30 31 30 30 30 29 28 27 26 25 24 24 23 22 21 21 20 19 19 18 18 18 17 17 17 16 16 16 16 16 15 15 15 15
27 26 26 26 26 26 28 31 31 31 29 30 30 29 28 28 27 26 25 24 23 22 22 21 21 20 19 19 18 18 18 17 17 17 16 16 16 16 16 15 15 15 15 14
25 25 25 25 26 27 29 30 30 28 27 28 28 27 27 27 26 24 23 22 22 21 20 20 20 19 19 18 18 17 17 17 16 16 16 16 16 16 15 15 15 14 14 14
26 25 25 25 25 25 27 29 27 26 26 27 26 26 25 24 23 22 21 21 20 20 19 19 19 18 18 17 17 17 16 16 16 16 16 16 15 15 15 15 14 14 14 14
26 26 26 25 25 25 25 25 25 25 25 25 25 24 23 23 22 21 20 20 19 19 18 18 18 17 17 17 16 16 16 16 16 16 15 15 15 14 14 14 14 14 14 13
25 26 25 24 24 24 24 24 24 24 24 23 23 23 22 22 21 20 19 19 18 18 18 17 17 16 16 16 16 16 15 15 15 15 15 14 14 14 14 14 13 13 13 13
23 24 24 23 23 23 23 23 23 23 23 23 22 22 22 21 20 19 18 18 17 17 17 16 16 16 15 15 15 15 15 15 15 14 14 14 14 13 13 13 13 13 13 13
22 23 23 22 22 22 22 22 22 22 22 22 21 21 20 20 19 18 17 17 17 16 16 16 15 15 15 15 15 15 15 14 14 14 13 13 13 13 13 13 13 13 13 12
Wind_Speed
12 12 14 14 14 12 12 8 4 4 3 4 5 6 7 9 10 11 12 14 15 15 15 14 14 14 13 11 10 9 8 7 6 5 5 5 5 4 4 5 7 9 9 9
12 16 16 14 10 11 12 11 6 4 4 6 6 7 7 8 9 9 11 12 15 15 15 15 14 14 13 12 11 10 9 9 8 5 4 4 4 4 5 5 5 8 9 9
18 13 14 14 12 12 13 12 7 6 5 7 8 9 9 8 6 8 10 12 14 17 17 17 15 14 14 13 12 11 10 9 9 7 5 4 3 3 3 3 3 5 7 8
16 15 10 12 14 13 13 10 7 7 7 8 10 8 8 9 8 9 9 11 13 15 17 17 16 15 14 13 13 10 10 9 8 7 6 6 5 5 4 3 3 4 5 7
15 15 14 14 14 13 11 8 9 10 10 12 11 10 6 9 9 9 9 9 10 11 13 15 16 14 13 13 12 11 10 9 8 7 7 6 6 4 3 2 3 4 4 5
17 14 14 14 14 12 10 9 9 10 11 13 12 11 5 6 6 6 7 6 8 8 9 12 13 12 11 11 11 11 10 8 8 7 7 6 6 4 3 3 3 3 3 4
18 17 14 13 14 14 12 10 8 9 10 11 12 10 4 5 6 6 6 7 8 9 10 11 12 12 11 10 10 10 10 8 7 7 6 5 5 4 4 3 3 3 3 3
18 17 17 14 15 14 15 16 11 9 9 8 9 8 6 8 7 6 4 6 10 11 11 11 11 11 10 10 9 9 9 8 7 7 6 5 4 3 2 3 2 3 3 4
15 18 18 17 16 17 16 16 17 15 15 10 6 6 6 8 8 7 7 7 8 10 10 11 12 11 10 10 9 8 8 7 7 6 5 4 4 3 2 2 3 2 2 3
14 12 15 18 15 18 17 15 11 13 11 11 7 8 7 11 10 8 8 8 8 9 10 10 11 10 10 9 9 8 7 6 6 5 4 4 4 3 1 1 1 1 1 2
19 13 13 17 18 18 17 17 13 10 11 11 8 4 2 9 8 9 8 7 8 8 8 9 9 9 9 8 9 8 7 6 5 4 3 2 2 2 1 1 1 1 1 1
18 13 13 16 16 17 17 18 16 11 10 10 10 3 3 7 7 7 8 8 9 9 9 9 10 10 9 8 8 8 7 6 5 4 3 2 2 2 1 1 1 1 2 2
15 11 12 14 15 17 17 17 17 16 12 11 11 4 7 5 6 8 9 9 9 9 9 9 10 10 9 8 8 7 6 5 5 5 4 3 2 2 2 2 2 2 2 2
10 12 14 15 13 16 18 18 17 17 12 12 12 6 7 6 6 8 9 9 9 10 9 9 10 9 8 8 7 7 6 5 5 5 4 4 3 2 3 3 3 3 3 4
10 14 15 15 14 14 16 17 18 18 16 14 11 11 10 9 8 9 9 9 10 10 10 10 10 9 8 8 7 6 6 6 5 5 4 4 3 4 4 4 4 4 4 4
10 10 14 16 16 14 15 17 17 17 17 16 12 7 6 7 8 8 8 9 9 10 10 11 11 10 9 8 7 6 6 6 6 5 5 5 4 5 5 5 5 5 5 5
13 9 11 14 17 16 16 15 16 15 16 14 12 7 4 6 8 7 7 7 8 9 10 11 11 10 8 8 7 7 7 6 6 6 5 5 5 6 5 6 6 6 6 6
8 10 9 12 14 17 12 11 13 14 12 10 8 5 5 6 8 8 7 7 8 8 9 10 10 10 9 9 8 7 7 7 7 6 5 5 6 6 6 7 7 6 6 6
8 8 10 12 14 14 11 11 11 10 8 6 6 5 5 8 9 7 7 6 7 7 8 9 9 10 9 9 8 8 7 7 7 7 6 6 6 6 7 7 7 6 7 7
12 8 10 11 12 12 9 9 7 8 8 5 5 5 6 7 6 5 7 8 9 8 7 8 9 10 9 8 8 8 8 7 7 7 6 6 6 6 7 6 6 7 7 7
16 14 14 14 11 7 5 5 7 10 4 3 4 5 6 4 5 8 9 8 8 8 8 8 9 9 8 8 8 8 8 7 7 8 7 7 7 7 7 6 6 7 7 8
16 15 15 14 12 6 3 2 3 4 6 6 6 7 9 10 11 10 10 9 9 8 9 9 9 8 7 8 8 8 8 8 8 8 8 7 6 6 7 7 6 6 7 7
10 8 7 5 3 5 8 8 7 7 7 8 7 8 9 10 10 10 9 8 8 8 8 9 10 9 7 7 8 9 8 8 8 8 7 7 7 6 5 5 5 4 4 4
6 4 4 3 5 7 8 8 7 7 7 7 6 8 9 10 10 10 9 8 7 8 9 9 9 9 8 8 8 9 8 8 8 8 7 7 7 7 6 5 4 4 3 3
2 4 6 6 6 6 6 5 6 7 7 7 6 6 8 9 10 9 8 8 7 7 7 8 8 8 9 9 9 9 8 8 9 8 7 7 8 8 8 9 8 8 7 5
2 1 2 2 3 4 6 5 6 6 5 5 6 7 8 8 9 9 8 7 7 7 7 8 8 9 9 9 9 8 7 8 8 7 7 6 7 7 8 9 10 15 12 14
Wind_Direction
216 229 233 230 228 252 268 266 228 184 178 218 205 187 190 183 189 177 176 177 173 177 178 172 173 172 169 165 166 173 184 176 179 188 192 208 216 212 210 210 198 197 208 207
220 228 237 245 241 250 263 265 248 212 194 241 232 217 200 191 191 183 184 181 177 175 175 173 175 176 171 170 173 178 185 181 187 195 200 213 214 213 212 219 196 202 210 212
226 229 225 235 238 242 250 254 251 233 205 241 252 240 210 197 197 193 191 187 182 178 177 176 180 181 177 175 179 185 184 183 190 194 196 222 219 236 236 220 209 216 213 218
232 238 229 230 236 233 244 250 252 255 248 252 244 252 204 191 198 202 201 191 187 182 179 177 181 182 181 179 181 178 177 181 185 194 204 213 218 225 230 220 214 216 222 227
226 227 228 229 234 233 246 259 254 246 246 255 252 256 219 188 200 204 200 196 182 177 176 175 178 178 181 180 176 175 175 180 184 195 206 216 231 234 239 216 215 221 224 232
238 227 224 230 232 233 241 248 253 254 255 252 251 258 237 191 193 205 203 183 159 158 167 170 169 169 174 172 172 176 172 177 184 195 205 210 230 235 241 236 223 227 232 232
231 232 221 223 227 220 225 229 226 231 234 244 240 244 222 172 171 181 188 158 149 152 163 165 164 165 167 167 168 166 164 176 184 192 203 208 221 229 233 243 240 239 250 245
212 221 216 213 224 218 215 227 232 240 243 241 234 236 208 165 151 155 151 140 148 157 159 156 153 156 160 160 160 158 162 173 180 187 194 201 211 222 228 238 247 252 252 255
213 218 206 207 217 230 217 225 240 253 269 272 240 230 185 156 159 160 153 153 156 156 151 153 152 156 156 158 158 155 154 162 174 183 185 189 199 213 219 219 231 252 263 269
246 234 209 197 209 226 236 230 237 250 265 270 253 223 208 169 172 171 167 162 154 150 150 149 147 146 148 154 145 141 145 152 159 169 183 182 189 196 204 246 259 305 312 318
237 243 223 200 203 217 221 231 239 251 257 262 259 252 207 158 166 171 164 155 150 140 138 133 133 133 135 137 136 136 138 140 145 154 161 145 150 161 185 228 286 49 44 352
225 236 235 215 207 219 225 226 230 238 251 266 271 265 95 129 151 160 149 143 137 132 138 132 135 131 131 138 136 134 135 137 141 139 138 136 135 135 135 96 41 63 68 52
214 232 231 222 209 210 227 229 231 233 236 248 258 223 133 159 158 150 140 132 131 135 134 131 129 127 132 134 128 129 131 133 133 131 133 127 118 112 102 83 77 80 81 71
225 226 234 229 218 207 216 228 230 233 232 237 239 213 160 171 163 144 139 141 142 134 131 129 124 122 123 120 119 124 130 128 124 121 121 116 108 104 96 87 80 75 76 73
226 225 235 250 251 231 218 218 225 231 235 237 238 222 187 183 173 151 146 142 141 141 143 138 134 130 129 125 126 130 126 121 116 118 115 108 100 92 94 90 82 74 71 75
219 240 232 242 251 249 230 220 221 227 233 239 244 238 184 157 139 136 145 151 150 151 148 142 137 137 137 135 138 132 125 119 115 112 104 99 97 93 92 92 88 81 76 72
201 225 238 236 238 245 237 223 221 226 229 235 238 230 178 140 136 136 139 146 149 147 148 144 143 141 140 141 135 130 125 121 116 108 102 100 97 95 89 92 92 85 77 71
211 210 231 243 241 238 239 232 229 228 224 220 222 213 166 142 128 125 129 134 142 144 143 143 145 143 142 140 135 128 126 122 118 113 106 99 98 96 91 87 87 84 80 78
211 218 229 235 238 234 238 231 226 222 225 201 194 182 148 132 128 128 123 124 123 130 130 137 141 138 135 133 130 128 123 119 117 112 106 102 102 98 92 89 89 87 85 80
205 214 236 236 239 234 227 229 216 213 210 180 168 158 154 150 166 144 120 114 113 110 115 126 130 129 127 129 130 127 123 121 117 112 105 101 101 101 99 95 95 96 94 91
201 206 224 240 240 248 253 228 215 215 185 118 129 126 132 121 94 111 111 106 111 114 121 121 122 125 122 122 123 123 121 117 113 110 107 101 98 99 102 99 98 101 100 98
201 205 215 232 236 233 345 182 153 86 75 88 95 100 103 102 102 109 108 109 114 119 124 123 118 116 116 120 125 123 117 113 111 108 107 104 104 106 107 105 108 110 114 112
204 209 213 218 186 93 66 81 78 82 82 87 94 101 109 117 118 115 115 117 117 120 122 122 122 117 114 116 121 121 116 115 114 109 105 103 99 90 98 106 113 122 127 122
196 186 180 150 132 106 92 86 77 74 83 90 100 110 116 118 121 122 123 122 120 119 122 124 124 122 118 114 114 114 115 115 115 112 108 106 101 91 77 74 77 76 66 88
281 222 189 156 133 115 85 76 82 85 94 103 104 108 114 119 126 128 126 124 123 120 120 123 124 124 121 118 116 117 120 122 121 119 117 112 103 97 80 66 49 60 51 46
332 252 225 140 119 123 108 83 81 86 92 104 112 112 117 125 128 129 129 127 128 128 124 122 121 122 123 124 121 123 127 128 130 133 135 126 121 116 111 103 82 55 59 57
Height
1492 1493 1491 1484 1480 1480 1479 1480 1484 1482 1477 1482 1486 1489 1489 1491 1493 1497 1502 1506 1511 1516 1521 1524 1528 1531 1533 1535 1537 1538 1540 1542 1544 1545 1547 1548 1550 1552 1553 1554 1554 1555 1555 1556
1490 1490 1482 1477 1477 1479 1480 1484 1485 1483 1479 1483 1486 1487 1484 1487 1490 1494 1498 1503 1507 1513 1517 1521 1525 1528 1530 1532 1534 1536 1537 1539 1541 1543 1545 1547 1549 1550 1550 1551 1551 1552 1553 1553
1487 1480 1477 1478 1480 1483 1483 1484 1485 1486 1482 1483 1486 1491 1486 1485 1488 1491 1494 1498 1503 1508 1513 1517 1521 1525 1527 1529 1531 1534 1535 1537 1539 1541 1543 1545 1546 1547 1548 1548 1549 1549 1550 1550
1481 1476 1477 1479 1481 1482 1487 1477 1480 1484 1492 1495 1489 1503 1488 1485 1487 1489 1492 1494 1498 1503 1508 1513 1517 1521 1524 1526 1529 1531 1533 1535 1537 1539 1540 1542 1543 1544 1545 1546 1546 1546 1547 1547
1478 1475 1477 1481 1479 1478 1480 1475 1479 1483 1489 1494 1489 1497 1492 1482 1488 1488 1489 1491 1494 1500 1505 1509 1514 1518 1522 1525 1527 1529 1531 1533 1534 1536 1538 1539 1541 1542 1543 1543 1543 1543 1543 1544
1472 1470 1472 1475 1474 1475 1476 1480 1482 1483 1488 1505 1494 1497 1498 1485 1487 1487 1487 1489 1493 1498 1503 1507 1511 1515 1520 1522 1525 1527 1529 1530 1532 1534 1535 1537 1538 1539 1540 1540 1540 1540 1540 1541
1477 1471 1469 1472 1476 1476 1479 1491 1506 1511 1509 1505 1484 1491 1492 1479 1478 1482 1485 1488 1492 1497 1503 1506 1510 1513 1517 1520 1522 1525 1526 1528 1530 1532 1533 1534 1535 1536 1537 1537 1538 1538 1537 1537
1483 1482 1469 1470 1474 1478 1481 1487 1506 1517 1511 1499 1488 1492 1483 1473 1476 1481 1485 1487 1492 1497 1501 1505 1509 1512 1515 1518 1521 1523 1525 1527 1528 1530 1531 1532 1533 1534 1535 1535 1535 1535 1535 1534
1471 1475 1462 1465 1469 1471 1479 1482 1478 1488 1492 1498 1492 1485 1475 1472 1476 1480 1484 1488 1492 1496 1500 1504 1508 1511 1514 1518 1520 1522 1524 1525 1527 1528 1530 1531 1532 1532 1533 1533 1533 1533 1532 1532
1459 1470 1460 1461 1467 1469 1470 1473 1480 1489 1504 1511 1499 1492 1487 1477 1478 1479 1483 1487 1491 1495 1499 1503 1507 1510 1514 1517 1519 1521 1523 1524 1526 1528 1529 1530 1530 1531 1531 1531 1531 1531 1530 1530
1458 1468 1464 1461 1470 1473 1474 1477 1478 1481 1485 1502 1510 1498 1468 1471 1475 1477 1482 1486 1490 1494 1499 1503 1507 1510 1514 1517 1518 1520 1523 1524 1526 1527 1528 1528 1529 1529 1530 1530 1529 1529 1529 1528
1457 1462 1468 1463 1458 1461 1465 1471 1475 1491 1493 1488 1495 1494 1466 1469 1474 1477 1481 1486 1491 1495 1499 1504 1507 1510 1513 1515 1518 1520 1522 1524 1525 1526 1526 1527 1528 1528 1528 1528 1528 1528 1527 1527
1456 1464 1478 1476 1469 1464 1466 1466 1468 1472 1481 1490 1496 1492 1470 1473 1475 1478 1482 1488 1492 1496 1500 1504 1507 1510 1513 1516 1518 1520 1522 1523 1524 1525 1526 1526 1526 1527 1527 1527 1527 1527 1527 1527
1455 1462 1471 1477 1470 1463 1469 1467 1465 1471 1484 1487 1486 1484 1476 1475 1477 1479 1484 1489 1493 1497 1501 1505 1508 1511 1514 1516 1518 1520 1522 1523 1523 1524 1525 1525 1525 1525 1526 1526 1526 1526 1526 1526
1456 1464 1464 1460 1456 1455 1460 1463 1464 1469 1471 1479 1476 1475 1474 1474 1476 1479 1484 1489 1493 1498 1502 1505 1508 1511 1514 1516 1518 1520 1521 1522 1523 1523 1524 1524 1524 1525 1525 1525 1526 1526 1526 1526
1458 1464 1465 1466 1457 1455 1458 1458 1460 1464 1465 1468 1468 1470 1465 1470 1475 1480 1484 1489 1493 1498 1502 1505 1508 1511 1514 1516 1518 1519 1521 1521 1522 1523 1524 1524 1524 1525 1525 1525 1526 1526 1526 1526
1459 1468 1471 1471 1461 1460 1466 1457 1457 1460 1460 1463 1470 1469 1467 1471 1476 1481 1485 1489 1493 1497 1501 1505 1508 1511 1513 1516 1517 1519 1520 1521 1522 1523 1523 1524 1525 1525 1525 1526 1526 1526 1527 1527
1461 1467 1470 1471 1470 1482 1460 1446 1449 1454 1456 1458 1462 1464 1467 1472 1477 1483 1487 1490 1494 1498 1501 1504 1507 1510 1513 1515 1517 1519 1520 1521 1522 1523 1524 1525 1525 1526 1526 1526 1527 1527 1527 1527
1459 1466 1470 1472 1475 1470 1456 1447 1449 1455 1460 1458 1462 1465 1469 1474 1478 1484 1488 1491 1495 1498 1501 1505 1508 1510 1512 1514 1516 1518 1520 1521 1522 1523 1524 1525 1526 1526 1527 1527 1528 1528 1529 1529
1458 1463 1471 1471 1478 1477 1460 1447 1448 1454 1465 1461 1463 1466 1471 1474 1480 1486 1489 1492 1495 1498 1501 1504 1507 1509 1511 1514 1516 1518 1520 1521 1522 1523 1524 1525 1526 1527 1528 1529 1529 1530 1530 1531
1462 1466 1471 1471 1472 1465 1450 1448 1450 1468 1471 1464 1466 1469 1472 1476 1481 1487 1490 1493 1496 1499 1501 1504 1507 1508 1511 1513 1515 1517 1519 1521 1522 1523 1524 1526 1527 1528 1529 1530 1531 1532 1532 1533
1457 1462 1468 1468 1473 1473 1454 1451 1459 1466 1465 1466 1468 1472 1475 1479 1484 1488 1491 1494 1496 1499 1503 1505 1506 1509 1511 1513 1515 1517 1519 1521 1522 1523 1525 1526 1528 1529 1530 1531 1532 1533 1534 1535
1449 1452 1454 1460 1466 1462 1460 1461 1465 1466 1468 1470 1472 1475 1478 1482 1486 1490 1493 1496 1499 1501 1503 1505 1507 1509 1512 1514 1516 1517 1519 1521 1522 1524 1525 1527 1528 1530 1531 1532 1534 1535 1536 1537
1449 1449 1453 1459 1461 1463 1464 1466 1468 1470 1472 1474 1476 1478 1481 1484 1488 1491 1495 1497 1500 1502 1504 1506 1507 1509 1512 1514 1516 1517 1519 1521 1522 1524 1526 1527 1529 1530 1532 1533 1535 1536 1537 1538
1453 1452 1453 1460 1463 1464 1467 1469 1471 1473 1474 1477 1479 1481 1483 1486 1489 1493 1496 1498 1500 1502 1504 1506 1508 1510 1512 1514 1516 1517 1519 1521 1522 1524 1526 1528 1530 1531 1532 1534 1535 1536 1538 1539
1457 1458 1458 1462 1465 1466 1470 1472 1474 1475 1477 1479 1481 1483 1486 1488 1490 1493 1496 1499 1501 1503 1505 1507 1508 1510 1512 1514 1516 1517 1519 1521 1523 1525 1527 1528 1530 1531 1533 1535 1536 1538 1539 1540